sat.trackr.live / text

‹ back to catalog

STARLINK-1246

NORAD 45235 · 2020-012BK

PAYLOAD ACTIVE UNKNOWN

§ Identity

Operator
Country
US
Launch date
2020-02-17
Launch site
AFETR
Launch vehicle
Mass (kg)
RCS (m²)

Purposes: comms

External: N2YO · Heavens-Above · Gunter

§ Orbital elements

Epoch: 2026-05-25T02:49:52.491360Z

Period
93.89 min
Inclination
53.1569°
Eccentricity
0.0003054
Mean motion
15.33725466 rev/d
Perigee alt
462.6 km
Apogee alt
466.8 km
Semi-major
6,842.8 km
B*
1.1463e-3
RAAN
43.6109°
Arg perigee
132.5155°
Mean anomaly
227.6106°
Rev number
34,668

§ Raw data

STARLINK-12461 45235U 20012BK  26145.11796865  .00037731  00000+0  11463-2 0  99922 45235  53.1569  43.6109 0003054 132.5155 227.6106 15.33725466346680

JSON: /api/v1/satellites/45235 · /tle

For live sub-satellite position, see the globe view (requires WebGL).

§ Visibility from observer

Set your observer location to see the next 7 days of passes ≥ 10°. The values pass through the URL so the page stays shareable.

No JS? Fill the form by hand. The geolocation button needs JavaScript.